Location: Godiavel Galaoual
(15.2485°N, 12.6604°W)
Time: 03:09:38
(UTC+00:00)

Envisat - Visible Passes

Search period start: 13 May 2021 00:00
Search period end: 23 May 2021 00:00
Orbit: 764 x 766 km, 98.1° (Epoch: 12 May)

Date Brightness Start Highest point End Pass type
(mag) Time Alt. Az. Time Alt. Az. Time Alt. Az.
14 May 4.7 05:32:32 10° NE 05:37:07 35° E 05:41:42 10° SSE visible
15 May 5.9 04:58:12 10° ENE 05:00:16 12° E 05:02:19 10° ESE visible
17 May 5.2 05:21:30 10° NE 05:25:40 26° E 05:29:50 10° SSE visible
19 May 3.9 05:46:06 10° NNE 05:51:02 52° E 05:55:57 10° S visible
20 May 5.6 05:10:39 10° NE 05:14:12 19° E 05:17:43 10° SE visible
22 May 4.5 05:34:52 10° NNE 05:39:34 38° E 05:44:16 10° SSE visible
